Regional Weather Roundup
Issued by NWS

Home | Current Version | Previous Version | Graphics & Text | Print | Product List | Glossary On
Versions: 1 2 3 4 5 6 7 8 9 10 11 12 13 14 15 16 17 18 19 20 21 22 23 24 25 26 27 28 29 30 31 32 33 34 35 36 37 38 39 40 41 42 43 44 45 46 47 48 49 50
000
ASUS45 KBOI 171810
RWRID
WEATHER ROUNDUP FOR IDAHO
NATIONAL WEATHER SERVICE BOISE ID
1200 PM MDT WED SEP 17 2014

NOTE: "FAIR" INDICATES FEW OR NO CLOUDS BELOW 12000 FEET
WITH NO SIGNIFICANT WEATHER AND/OR OBSTRUCTIONS TO VISIBILITY

IDZ012-014-171900-
SOUTHWEST IDAHO


CITY           SKY/WX    TMP DP  RH WIND       PRES   REMARKS
BOISE          CLOUDY    80  42  25 E5        29.87F
CALDWELL       CLOUDY    79  46  31 SE9       29.87F
MOUNTAIN HOME  PTSUNNY   81  43  26 SE13      29.87F
$$

IDZ016-017-171900-
SOUTHCENTRAL IDAHO


CITY           SKY/WX    TMP DP  RH WIND       PRES   REMARKS
BURLEY         MOSUNNY   80  48  32 SE5       29.93F
JEROME         PTSUNNY   81  45  28 E9        29.94F
TWIN FALLS     PTSUNNY   78  49  35 NE6       29.94S
$$

IDZ019>023-171900-
SOUTHEAST IDAHO


CITY           SKY/WX    TMP DP  RH WIND       PRES   REMARKS
IDAHO FALLS    MOSUNNY   77  46  33 CALM      30.01F
POCATELLO      MOSUNNY   84  45  25 NE5       29.98F
REXBURG        SUNNY     74  47  38 VRB3      30.03S
$$

IDZ006-010-011-018-031-032-171900-
CENTRAL IDAHO MOUNTAINS


CITY           SKY/WX    TMP DP  RH WIND       PRES   REMARKS
MCCALL         CLOUDY    64  47  53 SW3       29.98F
HAILEY         PTSUNNY   73  43  33 NW8       30.05S
STANLEY          N/A     56  38  50 NE5       30.15R
SALMON         PTSUNNY   64  46  52 W3        29.97F
CHALLIS        PTSUNNY   64  44  48 NE3       30.04F
$$

IDZ002-004-006-007-026-171900-
NORTHERN IDAHO


CITY           SKY/WX    TMP DP  RH WIND       PRES   REMARKS
LEWISTON       CLOUDY    70  43  37 CALM      29.78F
LOWELL           N/A     66  54  65 CALM      29.83F
COEUR D`ALENE  SUNNY     72  46  40 NE9       29.82F
MULLAN PASS    MOSUNNY   64  44  48 SE5       30.00F
$$


USA.gov is the U.S. government's official web portal to all federal, state and local government web resources and services.